Location: ??????
(38.5324°N, 24.1295°E)
Time: 10:45:27
(UTC+00:00)

Daily predictions for brighter satellites

Satellite Brightness Start Highest point End
(mag) Time Altitude Azimuth Time Altitude Azimuth Time Altitude Azimuth
Cosmos 841 Rocket 4.2 15:25:50 10° SSE 15:30:27 34° E 15:35:04 10° NE
Cosmos 1939 Rocket 3.1 15:26:52 10° SSE 15:30:51 51° ENE 15:34:50 10° N
ATLAS CENTAUR R/B 3.7 15:18:41 10° SW 15:31:52 79° NW 15:36:56 10° NE
COSMO-SKYMED 1 4.1 15:30:14 10° NE 15:33:15 18° E 15:36:14 10° SE
USA 229 DEB 4.2 15:27:00 10° NNW 15:34:10 50° NE 15:41:44 10° SE
USA 229 4.2 15:27:06 10° NNW 15:34:16 50° NE 15:41:48 10° SE
Cosmos 2082 Rocket 2.9 15:30:58 10° SSE 15:36:04 35° ESE 15:41:10 10° NE
Cosmos 1937 Rocket 4.2 15:32:34 10° N 15:37:21 33° ENE 15:42:06 10° SE
Cosmos 1812 4.2 15:35:08 10° SE 15:37:45 18° E 15:40:23 10° NE
NOAA 6 4.1 15:34:29 10° SSE 15:39:33 61° ENE 15:44:36 10° N
Cosmos 2026 Rocket 4.3 15:36:16 10° N 15:42:03 42° ENE 15:47:45 10° SSE
CZ-4B DEB 4.4 15:37:23 10° SE 15:42:41 50° ENE 15:47:58 10° N
CORIOLIS 4.2 15:37:57 10° SSE 15:43:13 59° ENE 15:48:33 10° N
Cosmos 990 Rocket 3.9 15:40:57 10° NNW 15:46:10 76° ENE 15:51:18 10° SSE
Okean O Rocket 2.9 15:47:25 10° ESE 15:50:39 20° ENE 15:53:52 10° NNE
USA 234 3.4 15:44:21 10° ESE 15:50:44 58° NE 15:57:07 10° NW
COSMOS 2406 3.2 15:47:39 10° SSW 15:53:24 86° ESE 15:59:10 10° NNE
COSMOS 2455 2.9 15:48:08 10° SSW 15:54:03 65° ESE 16:00:02 10° NNE
Cosmos 1151 Rocket 3.8 15:52:59 10° SSE 15:56:43 29° E 16:00:30 10° NNE
Cosmos 1602 3.7 15:53:23 10° N 15:57:12 58° E 16:01:00 10° SSE
Cosmos 1743 Rocket 3.6 15:53:01 10° N 15:57:21 82° W 16:01:40 10° S
NOSS 3-1 (A) 4.2 15:50:09 10° NNW 15:57:56 74° NE 16:06:53 10° SE
Cosmos 1782 2.8 15:54:03 10° S 15:57:58 60° E 16:01:55 10° NNE
USA 276 2.3 15:54:58 10° NW 15:58:01 49° NNE 16:00:37 13° ESE
ARGOS 3.9 15:55:35 10° SE 16:00:13 30° ENE 16:04:52 10° N
Cosmos 1833 Rocket 3.1 15:54:48 10° SSW 16:00:21 63° WNW 16:05:57 10° NNE
Cosmos 1666 Rocket 4.2 16:04:46 10° NNE 16:08:46 32° ENE 16:12:43 10° SE
PAYLOAD B 4.2 16:03:54 10° SSE 16:09:27 67° ENE 16:15:01 10° N
Cosmos 1809 Rocket 4.4 16:04:14 10° N 16:10:21 80° E 16:16:25 10° S
Cosmos 1328 Rocket 4.3 16:06:57 10° SSE 16:10:50 30° E 16:13:45 15° NE
Cosmos 1340 Rocket 4.4 16:09:13 10° NNW 16:13:01 38° W 16:16:48 10° SSW
CZ-2D R/B 3.1 16:10:09 10° SSE 16:13:59 75° ENE 16:17:49 10° N
Meteor 2-21 Rocket 4.5 16:10:30 10° N 16:16:28 54° E 16:22:22 10° SSE
CZ-4B R/B 3.3 16:11:27 10° SSE 16:16:42 52° ENE 16:21:55 10° N
ISS -1.9 16:14:52 10° NNW 16:17:09 17° NNE 16:17:11 17° NNE
Cosmos 1570 Rocket 4.2 16:12:25 10° S 16:17:27 49° ESE 16:21:37 15° NNE
SKYMED 2 3.5 16:17:13 10° NNE 16:21:31 64° E 16:25:49 10° S
Cosmos 540 Rocket 4.1 16:17:01 10° SSW 16:22:01 56° WNW 16:27:03 10° N
SL-08 RB Rocket 4.4 16:19:19 10° SE 16:23:23 31° ENE 16:27:25 10° N
Cosmos 2360 4.2 16:18:41 10° NNW 16:24:27 89° WSW 16:30:09 10° SSE
Cosmos 1814 Rocket 3.9 16:20:09 10° S 16:25:21 68° ESE 16:29:53 14° NNE
CZ-2C R/B 2.5 16:20:10 10° NNE 16:25:21 70° ESE 16:30:29 10° S
SMAP 4.4 16:21:25 10° S 16:25:49 43° W 16:30:16 10° NNW
Landsat 5 3.6 16:23:53 19° NNE 16:26:31 48° E 16:30:20 10° S
CZ-2C R/B 3.1 16:24:31 10° SSW 16:27:27 18° SSE 16:28:48 16° SE
CZ-4C R/B 3.4 16:21:28 10° NNW 16:28:22 41° NE 16:34:47 15° ESE
MOS 1-B 4.3 16:22:42 10° SSE 16:28:28 89° E 16:34:18 10° NNW
Cosmos 1500 3.2 16:28:05 10° N 16:31:49 79° W 16:35:31 10° S
Cosmos 1900 4.3 16:32:32 10° SSW 16:37:17 58° ESE 16:39:14 34° NE
Cosmos 1898 Rocket 4.5 16:32:46 10° NNW 16:37:48 49° WSW 16:42:46 10° S
Sich 1 3.6 16:34:15 10° NNW 16:38:28 58° W 16:42:42 10° S
deb Chang Zheng 4 3.6 16:44:31 10° S 16:48:49 80° WSW 16:53:10 10° NNW
Cosmos 2208 Rocket 3.9 16:44:40 10° SSW 16:50:01 79° ESE 16:53:12 26° NNE
Cosmos 1515 Rocket 4.1 16:47:25 10° SSE 16:50:50 41° SE 16:50:50 41° SE
H-2A R/B 2.8 16:46:37 10° S 16:51:43 53° W 16:56:42 10° NNW
GPS 2-04 Rocket1 3.2 16:52:14 10° W 16:56:14 51° S 16:56:49 47° SSE
Cosmos 2279 Rocket 4.4 16:53:37 10° SSW 16:59:46 65° W 17:05:57 10° N
Meteor 1-14 Rocket 4.4 16:54:10 10° NNW 17:00:00 76° W 17:05:55 10° S
SJ-11-01 4.5 16:55:21 10° S 17:00:04 73° WSW 17:04:50 10° NNW
Cosmos 1666 3.0 16:57:48 10° NNW 17:01:29 63° W 17:05:08 10° S
APEX 4.4 16:59:19 10° S 17:02:04 33° SSE 17:02:04 33° SSE
Cosmos 2322 Rocket 4.2 16:59:13 10° N 17:00:05 13° N 17:00:05 13° N
CZ-4C R/B 3.8 17:04:28 45° SW 17:04:28 45° SW 17:06:56 10° SSW
Cosmos 1697 Rocket 4.3 17:01:24 10° NW 17:06:26 35° WSW 17:11:27 10° SSW
DEBRIS 3.7 17:04:55 10° SW 17:06:15 34° SSW 17:06:15 34° SSW
DMSP B5D1-3 4.4 17:07:52 63° E 17:07:56 63° ESE 17:12:59 10° S
Cosmos 2266 Rocket 3.9 17:02:35 10° N 17:08:57 64° E 17:15:18 10° SSE
COSMO-SKYMED 1 4.0 17:05:31 10° N 17:09:29 35° WNW 17:13:26 10° SW
Cosmos 2369 4.5 17:04:25 10° NNW 17:09:58 52° WSW 17:15:28 10° S
Cosmos 1980 Rocket 2.5 17:04:56 10° NNW 17:10:33 67° WSW 17:16:06 10° S
Spot 2 4.3 17:08:20 10° SSE 17:13:25 74° ENE 17:18:34 10° N
SL-24 R/B - RUBIN 2 3.7 17:11:08 10° NW 17:15:31 67° WSW 17:15:48 65° SW
Meteor 2-15 Rocket 4.3 17:09:56 10° S 17:16:02 81° E 17:19:10 31° NNE
Cosmos 2082 Rocket 3.8 17:15:07 10° WSW 17:20:07 31° WNW 17:24:27 13° N
Cosmos 921 Rocket 3.4 17:16:34 10° SSW 17:20:01 56° SW 17:20:01 56° SW
SL-16 R/B 3.8 17:15:29 10° N 17:17:26 20° N 17:17:26 20° N
Cosmos 1633 Rocket 4.1 17:17:34 10° NNW 17:21:43 43° W 17:25:52 10° SSW
Okean O Rocket 3.1 17:22:38 10° SSW 17:26:43 36° W 17:30:50 10° NNW
Meteor 1-27 Rocket 4.1 17:25:13 10° S 17:29:10 48° S 17:29:10 48° S
USA 234 4.5 17:27:50 10° SSE 17:33:50 38° SW 17:39:52 10° WNW
Cosmos 2278 4.1 17:28:53 10° NNW 17:34:29 59° WSW 17:38:41 18° S
IRAS Rocket 4.3 17:39:32 74° W 17:39:32 74° W 17:44:48 10° SSW
Cosmos 1655 Rocket 4.2 17:33:41 10° NNW 17:40:02 69° W 17:46:19 10° S
CZ-2C R/B 4.4 18:02:40 10° WSW 18:02:58 12° WSW 18:02:58 12° WSW
CZ-4C R/B 3.7 18:09:49 10° NW 18:17:15 52° WSW 18:20:11 38° SSW
